Location: Observatorio Las Palmas
(29.0667°N, 110.9333°W)
Time: 06:51:10
(UTC-07:00)

Skynet4D Del rocket - Visible Passes

Search period start: 04 August 2015 00:00
Search period end: 14 August 2015 00:00
Orbit: 763 x 1291 km, 26.9° (Epoch: 02 August)

Date Brightness Start Highest point End Pass type
(mag) Time Alt. Az. Time Alt. Az. Time Alt. Az.
04 Aug 3.5 20:34:26 10° W 20:39:48 72° S 20:42:38 30° ESE visible
04 Aug 5.7 22:26:44 10° W 22:28:15 19° W 22:28:15 19° W visible
05 Aug 3.5 21:15:49 10° W 21:21:10 66° S 21:21:19 65° S visible
06 Aug 3.5 20:04:52 10° W 20:10:10 71° S 20:14:22 18° E visible
06 Aug 5.0 21:57:15 10° W 21:59:59 28° WSW 21:59:59 28° WSW visible
07 Aug 3.6 20:46:15 10° W 20:51:32 60° S 20:53:03 44° SE visible
08 Aug 3.6 19:35:13 10° W 19:40:33 69° S 19:45:58 10° ESE visible
08 Aug 4.4 21:27:47 10° W 21:31:44 37° SW 21:31:44 37° SW visible
09 Aug 3.8 20:16:41 10° W 20:21:54 54° SSW 20:24:48 26° SE visible
09 Aug 5.9 22:09:41 10° WSW 22:10:26 13° WSW 22:10:26 13° WSW visible
10 Aug 4.3 20:58:18 10° W 21:03:08 35° SSW 21:03:32 35° S visible
11 Aug 4.0 19:47:02 10° W 19:52:14 48° SSW 19:56:38 14° ESE visible
11 Aug 5.6 21:40:29 10° WSW 21:42:16 16° SW 21:42:16 16° SW visible
12 Aug 4.7 20:28:48 10° W 20:33:27 30° SSW 20:35:25 23° SSE visible
13 Aug 5.5 21:11:25 10° WSW 21:14:14 16° SSW 21:14:14 16° SSW visible
